Regional Weather Roundup
Issued by NWS

Home | Current Version | Previous Version | Graphics & Text | Print | Product List | Glossary On
Versions: 1 2 3 4 5 6 7 8 9 10 11 12 13 14 15 16 17 18 19 20 21 22 23 24 25 26 27 28 29 30 31 32 33 34 35 36 37 38 39 40 41 42 43 44 45 46 47 48 49 50
000
ASUS43 KDMX 251206
RWRIA

WEATHER ROUNDUP FOR IOWA
NATIONAL WEATHER SERVICE DES MOINES IA
700 AM CDT TUE APR 25 2017

NOTE: "FAIR" INDICATES FEW OR NO CLOUDS BELOW 12,000 FEET WITH NO
SIGNIFICANT WEATHER AND/OR OBSTRUCTIONS TO VISIBILITY.

* - THESE STATIONS ARE NOT NWS STATIONS...THUS NOT UNDER NWS
QUALITY CONTROL.  THEY ALSO DO NOT REPORT WEATHER SUCH
AS PRECIPITATION OR FOG.

IAZ001>003-012>014-020>022-031>034-043>046-251300-
   NORTHWEST IOWA

CITY           SKY/WX    TMP DP  RH WIND       PRES   REMARKS
CARROLL *      CLOUDY    48  45  87 W6        29.52S
CHEROKEE *     CLOUDY    44  43  96 N12       29.54R
DENISON *      CLOUDY    46  43  87 N6        29.54S
LE MARS *      CLOUDY    43  39  87 N10       29.55S
ORANGE CITY *  CLOUDY    43  41  93 N8        29.53F
SHELDON *      CLOUDY    41  39  93 N13       29.53R
SIOUX CITY     CLOUDY    43  39  86 N9        29.55S
6HR MIN TEMP:  42; 6HR MAX TEMP:  49;

SPENCER        CLOUDY    41  40  96 N17       29.54R
6HR MIN TEMP:  41; 6HR MAX TEMP:  56;

STORM LAKE *   CLOUDY    45  41  87 N12       29.53R
$$

IAZ055>058-069>071-079>083-090>094-251300-
   SOUTHWEST IOWA

CITY           SKY/WX    TMP DP  RH WIND       PRES   REMARKS
ATLANTIC *     CLOUDY    52  46  82 CALM      29.50F
AUDUBON *      CLOUDY    50  45  81 CALM      29.52S
CLARINDA *     CLOUDY    57  48  72 CALM      29.49F
COUNCIL BLFS * CLOUDY    48  46  93 NE6       29.50S
CRESTON *      CLOUDY    55  45  67 S8        29.52F
HARLAN  *      CLOUDY    50  45  81 N10       29.53F
LAMONI         CLOUDY    55  40  56 S8        29.54S
6HR MIN TEMP:  55; 6HR MAX TEMP:  60;

RED OAK *      CLOUDY    54  46  76 CALM      29.50F
SHENANDOAH *   CLOUDY    55  48  76 NE12      29.43F
$$

IAZ047>049-059>061-072>074-084-251300-
   CENTRAL IOWA

CITY           SKY/WX    TMP DP  RH WIND       PRES   REMARKS
AMES           PTCLDY    50  42  74 S7        29.52S
6HR MIN TEMP:  49; 6HR MAX TEMP:  59;

ANKENY *       CLOUDY    54  41  62 S6        29.54S
BOONE *        MOCLDY    50  39  66 S5        29.52R
CHARITON *     PTCLDY    54  41  62 S8        29.55R
DES MOINES     CLOUDY    57  41  55 S6        29.54R
6HR MIN TEMP:  56; 6HR MAX TEMP:  63;

GRINNELL*      CLOUDY    52  37  57 S7        29.56R
KNOXVILLE *    CLOUDY    55  37  50 S9        29.54R
MARSHALLTOWN   CLOUDY    53  38  56 SE10      29.53R
6HR MIN TEMP:  49; 6HR MAX TEMP:  61;

NEWTON *       MOCLDY    52  37  58 S9        29.55R
PELLA *        CLOUDY    54  37  53 S7        29.57R
PERRY *          N/A     52  41  65 S7        29.52S
$$

IAZ004>006-015-016-023>025-035-036-251300-
   NORTH CENTRAL IOWA

CITY           SKY/WX    TMP DP  RH WIND       PRES   REMARKS
ALGONA *       CLOUDY    46  45  93 N13       29.52R
CLARION *      CLOUDY    52  39  62 SE12      29.51R
ESTHERVILLE    CLOUDY    40  40 100 N17       29.53R FOG     WCI  31
6HR MIN TEMP:  40; 6HR MAX TEMP:  58;

FORT DODGE *   CLOUDY    52  39  62 CALM      29.52R
MASON CITY     CLEAR     50  38  63 SE8       29.52F
6HR MIN TEMP:  47; 6HR MAX TEMP:  58;

FOREST CITY *    N/A     48  37  66 SE6       29.51S
WEBSTER CITY * CLOUDY    52  39  62 S10       29.50R
IOWA FALLS *     N/A     52  38  58 SE8       29.53S
$$

IAZ007>011-017>019-026>030-037>042-050>054-066-251300-
   NORTHEAST IOWA

CITY           SKY/WX    TMP DP  RH WIND       PRES   REMARKS
CEDAR RAPIDS   CLEAR     53  40  61 S7        29.57S
6HR MIN TEMP:  52; 6HR MAX TEMP:  59;

CHARLES CITY * CLEAR     52  36  54 SE9       29.54R
CLINTON *      CLOUDY    53  40  61 SE6       29.63R
DECORAH *      CLEAR     54  36  50 SE8       29.56R
DUBUQUE        CLEAR     50  37  61 S7        29.61S
6HR MIN TEMP:  49; 6HR MAX TEMP:  58;

MONTICELLO *   CLEAR     52  36  54 SE9       29.59R
OELWEIN *      CLEAR     52  37  58 SE9       29.56F
WATERLOO       CLOUDY    54  37  52 SE9       29.54S
6HR MIN TEMP:  53; 6HR MAX TEMP:  62;

$$

IAZ064-065-067-068-078-251300-
   EAST CENTRAL IOWA

CITY           SKY/WX    TMP DP  RH WIND       PRES   REMARKS
DAVENPORT      CLOUDY    56  38  50 S12       29.62S
6HR MIN TEMP:  53; 6HR MAX TEMP:  57;

IOWA CITY      PTCLDY    52  38  58 CALM      29.60S
6HR MIN TEMP:  49; 6HR MAX TEMP:  58;

MT. PLEASANT * CLEAR     55  40  56 S8        29.61R
MUSCATINE *    CLOUDY    45  37  76 CALM      29.61S
QUAD CITIES    CLOUDY    54  39  57 S8        29.61S
6HR MIN TEMP:  49; 6HR MAX TEMP:  55;

$$

IAZ062-063-075>077-085>089-095>099-251300-
   SOUTHEAST IOWA

CITY           SKY/WX    TMP DP  RH WIND       PRES   REMARKS
BURLINGTON     CLEAR     55  43  63 S9        29.61R
6HR MIN TEMP:  54; 6HR MAX TEMP:  63;

FAIRFIELD *    PTCLDY    55  37  50 S9        29.59R
FORT MADISON * CLEAR     55  43  62 S10       29.62R
KEOKUK *       CLEAR     57  41  54 S9        29.61R
OSKALOOSA *      N/A     52  39  62 S12       29.58R
CENTERVILLE *    N/A     54  39  58 CALM      29.59R
OTTUMWA        CLOUDY    55  38  52 S13       29.57R
6HR MIN TEMP:  55; 6HR MAX TEMP:  60;

WASHINGTON *   PTCLDY    54  41  62 S9        29.60R
$$

ABBREVIATIONS USED IN REMARKS
   TC - TEMPERATURES IN CELSIUS
  WCI - WIND CHILL INDEX
   HX - HEAT INDEX
  VSB - VISIBILITY
$$




USA.gov is the U.S. government's official web portal to all federal, state and local government web resources and services.